Pocatello, ID

6:30 PM MDT on October 20, 2017 (GMT -0600)
Pocatello Regional

Weather History for KPIH - November, 2014

Change the Weather History Date:

Sunday, November 23, 2014

  Actual Average Record
Temperature  
Mean Temperature 34 °F 31 °F  
Max Temperature 38 °F 40 °F 58 °F (1998)
Min Temperature 29 °F 21 °F -5 °F (1985)
Degree Days  
Heating Degree Days 31 34  
Month to date heating degree days 771 668  
Since 1 July heating degree days 1373 1475  
Cooling Degree Days 0 0  
Month to date cooling degree days 0 0  
Year to date cooling degree days 421 392  
Moisture  
Dew Point 28 °F    
Average Humidity 81    
Maximum Humidity 92    
Minimum Humidity 70    
Precipitation  
Precipitation T in 0.04 in 0.64 in (1988)
Month to date precipitation 1.36 0.82  
Year to date precipitation 11.66 10.60  
Snow  
Snow T in - - ()
Month to date snowfall 4.6  
Since 1 July snowfall 4.6  
Since 1 September snowfall 4.6  
Snow Depth 0.00 in    
Sea Level Pressure  
Sea Level Pressure 30.15 in    
Wind  
Wind Speed 21 mph (SW)    
Max Wind Speed 31 mph    
Max Gust Speed 37 mph    
Visibility 10 miles    
Events Snow    
T = Trace of Precipitation, MM = Missing Value Source: NWS Daily Summary

Daily Weather History Graph

Daily Weather History Graph

Search for Another Location

Airport or City:

Trip Planner

Search our weather history database for the weather conditions in past years. The results will help you decide how hot, cold, wet, or windy it might be!

Date:

Astronomy

Nov. 23, 2014 Rise Set
Actual Time 7:32 AM MST 5:00 PM MST
Civil Twilight 7:01 AM MST 5:31 PM MST
Nautical Twilight 6:26 AM MST 6:06 PM MST
Astronomical Twilight 5:52 AM MST 6:40 PM MST
Moon 8:31 AM MST (11/23) 6:27 PM MST (11/23)
Length of Visible Light 10h 30m
Length of Day
9h 28m
New Moon, 2% of the Moon is Illuminated
Nov 23
New Moon
Nov 29
First Quarter
Dec 6
Full
Dec 14
Last Quarter
Dec 21
New

Hourly Weather History & Observations

Time (MST) Temp. Windchill Dew Point Humidity Pressure Visibility Wind Dir Wind Speed Gust Speed Precip Events Conditions
12:53 AM 34.0 °F 21.5 °F 30.9 °F 89% 29.94 in 10.0 mi WSW 24.2 mph 31.1 mph N/A   Overcast
1:21 AM 33.1 °F 19.8 °F 30.9 °F 92% 29.91 in 10.0 mi WSW 26.5 mph 36.8 mph N/A   Overcast
1:53 AM 33.1 °F 19.8 °F 30.0 °F 89% 29.95 in 10.0 mi WSW 26.5 mph 33.4 mph N/A   Overcast
2:53 AM 32.0 °F 20.1 °F 30.0 °F 92% 29.99 in 10.0 mi West 19.6 mph 31.1 mph N/A   Overcast
3:22 AM 32.0 °F 18.6 °F 28.9 °F 88% 29.98 in 10.0 mi West 25.3 mph 33.4 mph N/A   Overcast
3:53 AM 32.0 °F 20.5 °F 28.9 °F 88% 30.04 in 10.0 mi WSW 18.4 mph - N/A   Overcast
4:37 AM 30.9 °F 19.8 °F 28.9 °F 92% 30.03 in 6.0 mi SW 16.1 mph - 0.00 in Snow Light Snow
4:53 AM 30.9 °F 19.8 °F 28.9 °F 92% 30.09 in 10.0 mi SW 16.1 mph - 0.00 in   Overcast
5:53 AM 30.0 °F 18.7 °F 27.0 °F 88% 30.13 in 10.0 mi SW 16.1 mph - N/A   Clear
6:53 AM 28.9 °F 16.9 °F 26.1 °F 89% 30.17 in 10.0 mi SW 17.3 mph - N/A   Partly Cloudy
7:53 AM 28.9 °F 18.2 °F 26.1 °F 89% 30.22 in 10.0 mi SSW 13.8 mph - N/A   Partly Cloudy
8:53 AM 30.0 °F 18.7 °F 27.0 °F 88% 30.23 in 10.0 mi SW 16.1 mph - N/A   Partly Cloudy
9:53 AM 32.0 °F 19.8 °F 26.1 °F 79% 30.26 in 10.0 mi SW 20.7 mph - N/A   Scattered Clouds
10:53 AM 34.0 °F 21.5 °F 28.0 °F 79% 30.27 in 10.0 mi SW 24.2 mph - N/A   Scattered Clouds
11:53 AM 36.0 °F 23.9 °F 27.0 °F 70% 30.25 in 10.0 mi WSW 25.3 mph - N/A   Scattered Clouds
12:53 PM 36.0 °F 24.4 °F 28.0 °F 73% 30.25 in 10.0 mi WSW 23.0 mph 33.4 mph N/A   Scattered Clouds
1:53 PM 37.9 °F 26.8 °F 28.9 °F 70% 30.23 in 10.0 mi WSW 24.2 mph 29.9 mph N/A   Scattered Clouds
2:53 PM 37.9 °F 26.6 °F 28.0 °F 68% 30.22 in 10.0 mi WSW 25.3 mph 29.9 mph N/A   Scattered Clouds
3:53 PM 37.0 °F 25.9 °F 28.0 °F 70% 30.22 in 10.0 mi WSW 23.0 mph - N/A   Scattered Clouds
4:53 PM 35.1 °F 23.8 °F 27.0 °F 72% 30.22 in 10.0 mi WSW 20.7 mph 28.8 mph N/A   Mostly Cloudy
5:53 PM 34.0 °F 23.4 °F 27.0 °F 75% 30.25 in 10.0 mi WSW 17.3 mph - N/A   Mostly Cloudy
6:53 PM 34.0 °F 22.7 °F 26.1 °F 73% 30.22 in 10.0 mi SSW 19.6 mph - N/A   Overcast
7:53 PM 34.0 °F 22.4 °F 27.0 °F 75% 30.22 in 10.0 mi SW 20.7 mph - N/A   Partly Cloudy
8:53 PM 34.0 °F 22.1 °F 27.0 °F 75% 30.20 in 10.0 mi SW 21.9 mph - N/A   Overcast
9:53 PM 35.1 °F 22.0 °F 26.1 °F 70% 30.17 in 10.0 mi SW 28.8 mph - N/A   Mostly Cloudy
10:53 PM 34.0 °F 21.8 °F 26.1 °F 73% 30.17 in 10.0 mi SW 23.0 mph 28.8 mph N/A   Clear
11:53 PM 33.1 °F 21.5 °F 26.1 °F 75% 30.15 in 10.0 mi SW 19.6 mph 28.8 mph N/A   Overcast